Location: ??
(35.2019°N, 139.6516°E)
Time: 05:26:50
(UTC+00:00)

Daily predictions for brighter satellites

Satellite Brightness Start Highest point End
(mag) Time Altitude Azimuth Time Altitude Azimuth Time Altitude Azimuth
ARIANE 5 R/B 2.9 07:50:56 10° SE 07:55:34 39° ENE 08:00:17 10° N
Cosmos 1461 3.4 07:52:02 10° SW 07:55:46 52° WNW 07:59:36 10° NNE
Cosmos 1626 Rocket 3.7 07:54:23 10° N 07:58:42 80° W 08:02:58 10° S
Cosmos 2297 Rocket 2.4 07:54:22 10° N 07:59:52 49° ENE 08:05:19 10° SE
Cosmos 1606 Rocket 4.0 07:56:20 10° SSE 08:00:27 41° E 08:04:37 10° NNE
COSMO-SKYMED 1 3.9 08:06:53 10° NE 08:09:46 18° E 08:12:37 10° SE
Cosmos 2208 Rocket 4.0 08:05:16 10° NNW 08:10:27 88° ENE 08:15:40 10° SSE
USA 290 2.4 08:07:30 10° N 08:10:40 49° ENE 08:13:49 10° SSE
MOS 1 Rocket 3.8 08:07:33 10° SE 08:12:01 41° ENE 08:16:45 10° N
ATLAS CENTAUR R/B 0.5 08:09:39 10° NNW 08:12:49 62° ENE 08:15:50 10° SE
SAR-Lupe-4 3.6 08:11:28 10° SSE 08:14:55 52° ENE 08:18:24 10° N
CZ-2D R/B 2.8 08:13:00 10° SSE 08:16:02 50° ENE 08:19:05 10° N
Cosmos 1980 Rocket 2.7 08:13:22 10° S 08:18:35 40° ESE 08:23:48 10° NE
Meteor 1-25 Rocket 4.4 08:14:37 10° N 08:20:18 54° ENE 08:25:54 10° SSE
H-II Stage 2 4.3 08:06:28 10° W 08:22:10 44° SSW 08:25:55 10° SE
SAR-Lupe-1 4.0 08:21:02 10° SSE 08:24:33 61° ENE 08:28:07 10° N
Cosmos 1726 Rocket 3.7 08:20:41 10° S 08:25:14 60° E 08:29:48 10° NNE
NOSS 2-3 (C) 2.9 08:22:49 10° SSW 08:26:26 85° ESE 08:29:25 13° NNE
Okean 1-7 Rocket 3.4 08:24:31 10° N 08:28:54 73° E 08:33:13 10° SSE
Cosmos 1607 3.9 08:24:18 10° NNW 08:30:32 67° ENE 08:36:49 10° SE
USA 238 DEB 3.4 08:27:48 10° SSW 08:33:41 71° ESE 08:39:37 12° NE
USA 238 3.4 08:27:54 10° SSW 08:33:48 70° ESE 08:39:42 12° NE
Cosmos 2263 Rocket 3.2 08:32:30 10° N 08:37:01 24° ENE 08:39:51 17° E
Cosmos 1602 Rocket 4.3 08:32:59 10° NNW 08:37:15 56° W 08:41:28 10° S
CZ-4C R/B 3.1 08:29:55 10° NNW 08:37:20 60° ENE 08:46:10 10° SE
Cosmos 1743 4.2 08:34:31 10° NNW 08:37:26 32° W 08:40:20 10° SSW
ATLAS 5 CENTAUR R/B 4.3 08:31:32 10° SSW 08:37:29 78° ESE 09:03:26 10° NE
YAOGAN 1 3.3 08:35:09 10° SE 08:38:46 28° ENE 08:42:24 10° NNE
SKYMED 2 3.5 08:35:56 10° NNE 08:40:17 70° ESE 08:44:36 10° S
Cosmos 2266 Rocket 4.2 08:38:24 10° N 08:44:30 72° W 08:50:29 10° S
EXPRESS MD2 3.1 08:44:28 10° WSW 08:46:48 47° NNW 08:48:04 28° NNE
Helios 1A Rocket 3.0 08:47:31 34° ENE 08:48:03 36° E 08:51:12 10° SSE
COSMOS 2455 4.0 08:43:48 10° SSE 08:48:16 22° ESE 08:49:06 22° E
Cosmos-2242 3.2 08:46:18 10° SSE 08:50:18 45° E 08:52:34 23° NNE
Cosmos 2227 Rocket 2.2 08:45:36 10° NNW 08:51:09 56° ENE 08:56:40 10° SE
Spot 4 Rocket 4.2 08:49:30 10° SE 08:54:22 47° ENE 08:59:15 10° N
Cosmos 1553 Rocket 4.2 08:53:21 10° SSE 08:59:07 46° E 09:04:45 11° NNE
Cosmos 1697 Rocket 4.1 08:54:30 10° SW 08:59:38 36° WNW 09:04:47 10° N
Cosmos 1953 Rocket 3.5 08:56:09 10° N 09:00:35 66° E 09:05:00 10° SSE
Sakura Rocket 4.2 08:57:14 10° SW 09:00:46 26° S 09:02:04 21° SE
Meteor 2-2 Rocket 4.2 08:56:20 10° S 09:01:54 59° E 09:06:44 14° NNE
Cosmos 1898 Rocket 3.4 08:57:25 10° S 09:02:30 65° ESE 09:05:28 25° NNE
SL-19 R/B 4.3 08:59:38 10° SE 09:04:42 50° ENE 09:10:02 10° N
OAO 1 4.5 09:01:30 10° WSW 09:07:01 80° S 09:09:10 38° E
NOAA 15 4.5 09:05:15 10° SSE 09:10:31 74° ENE 09:15:48 10° N
Cosmos 1825 Rocket 4.5 09:06:38 10° NNW 09:10:48 48° W 09:14:56 10° SSW
IRAS Rocket 4.2 09:06:52 10° SSE 09:12:13 57° ENE 09:17:34 10° N
BlueWalker 3 3.6 09:10:41 10° WNW 09:13:54 30° SW 09:17:07 10° SSE
Hubble Space Telescope 2.2 09:17:01 10° SW 09:20:08 24° S 09:20:12 24° SSE
Meteor 2-10 4.0 09:15:04 10° N 09:20:30 73° E 09:26:04 10° SSE
Cosmos 372 Rocket 4.3 09:16:52 10° SSW 09:21:59 63° WNW 09:25:28 20° N
Meteor 2-6 Rocket 4.4 09:17:06 10° SSE 09:22:25 48° E 09:22:25 48° E
Cosmos 2058 Rocket 3.5 09:19:09 10° SSW 09:23:33 62° W 09:26:45 18° N
Cosmos 1937 Rocket 3.3 09:18:23 10° S 09:23:34 75° ESE 09:24:55 49° NE
Cosmos 1244 Rocket 4.3 09:21:33 10° N 09:27:48 71° E 09:33:58 10° SSE
Aureole 1 Rocket 4.1 09:24:15 10° SW 09:28:04 43° WNW 09:31:18 18° N
Cosmos 1867 3.8 09:23:08 10° NW 09:28:34 69° WSW 09:33:55 10° SSE
Okean 1 3.6 09:27:22 10° SSW 09:30:37 57° WSW 09:30:37 57° WSW
OceanSat 1 rocket 4.4 09:27:35 10° SSE 09:32:21 86° ENE 09:37:06 10° NNW
CZ-2D R/B 4.3 09:28:27 10° S 09:32:33 50° W 09:36:38 10° NNW
Cosmos 2237 4.1 09:27:36 10° S 09:33:15 65° ESE 09:33:40 63° E
Cosmos 2084 Rocket 4.3 09:29:56 10° NW 09:33:58 46° WSW 09:36:32 20° S
PSLV R/B 3.6 09:30:37 10° S 09:38:27 11° NNW 09:38:37 10° NNW
Meteor 1-26 Rocket 4.5 09:30:16 10° SSW 09:35:39 64° W 09:39:47 17° N
NOAA 6 3.9 09:34:58 10° SSE 09:40:04 90° WSW 09:45:12 10° NNW
SL-16 R/B 3.5 09:37:14 10° S 09:39:54 26° SSE 09:39:54 26° SSE
SL-08 R/B 4.4 09:38:35 10° N 09:44:57 81° E 09:51:16 10° S
COSMO-SKYMED 1 4.3 09:42:34 16° NNW 09:45:03 28° WNW 09:48:35 10° SW
Cosmos 2219 4.4 09:56:22 10° NNW 09:59:23 33° NNW 09:59:23 33° NNW
Cosmos 1980 Rocket 4.1 09:58:01 10° WSW 10:02:38 25° WNW 10:05:53 16° NNW
Cosmos 2263 Rocket 3.2 10:15:42 10° NW 10:21:02 43° WSW 10:21:47 41° SW
COSMOS 2455 3.9 10:27:57 10° SW 10:32:17 41° W 10:32:17 41° W
H-2A R/B 4.0 10:40:31 10° WSW 11:20:58 - ESE 10:41:59 26° WSW
